Overview Statistics Trail Chart Weather Telemetry Raw packets
 

This is the latest recevied weather packets stored in our database for station/object SR4DIG-13. If no packets are shown the sender has not sent any weather packets the latest 10 day(s).

<< 106 107 108 109 110 >>
Time Temp. Humidity Pressure Rain* Wind** Luminosity Snow
1787809440 19.44° C 69% 1024.3 hPa 0 mm - - -
1787809140 18.33° C 71% 1024.4 hPa 0 mm - - -
1787808839 17.78° C 72% 1024.2 hPa 0 mm - - -
1787808237 17.22° C 76% 1024.3 hPa 0 mm - - -
1787807936 16.67° C 78% 1024.3 hPa 0 mm - - -
1787807635 15.56° C 79% 1024.1 hPa 0 mm - - -
1787807580 12.78° C 88% 1024.4 hPa 0 mm - - -
1787807335 14.44° C 81% 1024.3 hPa 0 mm - - -
1787806739 13.89° C 83% 1024.2 hPa 0 mm - - -
1787806439 13.33° C 84% 1024.3 hPa 0 mm - - -
1787806138 13.33° C 85% 1024.3 hPa 0 mm - - -
1787805837 13.33° C 86% 1024.4 hPa 0 mm - - -
1787805666 11.67° C 89% 1024.2 hPa 0 mm - - -
1787805535 12.78° C 87% 1024.4 hPa 0 mm - - -
1787805328 11.11° C 89% 1024.3 hPa 0 mm - - -
1787805267 12.78° C 88% 1024.4 hPa 0 mm - - -
1787805235 12.78° C 88% 1024.4 hPa 0 mm - - -
1787804934 12.78° C 89% 1024.5 hPa 0 mm - - -
1787804633 12.22° C 89% 1024.3 hPa 0 mm - - -
1787804332 11.67° C 89% 1024.3 hPa 0 mm - - -
1787804031 11.67° C 89% 1024.3 hPa 0 mm - - -
1787803730 11.67° C 89% 1024.2 hPa 0 mm - - -
1787803429 11.11° C 89% 1024.3 hPa 0 mm - - -
1787803128 11.11° C 89% 1024.3 hPa 0 mm - - -
1787802828 11.11° C 89% 1024.2 hPa 0 mm - - -

* Rain latest hour (hover to see other rain measurements)
** Current wind speed in m/s (hover to see current wind gust speed)